386  
ASUS41 KRLX 241410  
RWRRLX  
WEST VIRGINIA REGIONAL WEATHER ROUNDUP  
NATIONAL WEATHER SERVICE CHARLESTON WV  
1000 AM EDT MON JUL 24 2017  
 
NOTE: "FAIR" INDICATES FEW OR NO CLOUDS BELOW 12,000 FEET WITH NO  
SIGNIFICANT WEATHER AND/OR S TO VISIBILITY
.  
 
WVZ003-241500-  
NORTHERN PANHANDLE OF WEST VIRGINIA  
 
CITY SKY/WX TMP DP RH WIND PRES REMARKS
 
WHEELING CLOUDY 70 66 87 SW7 29.89S  

 
 
WVZ009-241500-  
NORTHWEST WEST VIRGINIA  
 
CITY SKY/WX TMP DP RH WIND PRES REMARKS
 
PARKERSBURG PTSUNNY 74 70 87 VRB3 29.92S  

 
 
WVZ006-241500-  
WESTERN WEST VIRGINIA  
 
CITY SKY/WX TMP DP RH WIND PRES REMARKS
 
HUNTINGTON MOSUNNY 79 71 76 VRB5 29.91S  

 
 
WVZ015-241500-  
WEST CENTRAL WEST VIRGINIA  
 
CITY SKY/WX TMP DP RH WIND PRES REMARKS
 
CHARLESTON MOSUNNY 79 69 71 SW7 29.92F  

 
 
WVZ022-031-241500-  
NORTH CENTRAL WEST VIRGINIA  
 
CITY SKY/WX TMP DP RH WIND PRES REMARKS
 
CLARKSBURG CLOUDY 72 66 81 W6 29.91S  
MORGANTOWN PTSUNNY 71 65 81 SW5 29.92R  

 
 
WVZ025-035-042-045-241500-  
SOUTHERN WEST VIRGINIA  
 
CITY SKY/WX TMP DP RH WIND PRES REMARKS
 
BECKLEY CLOUDY 74 65 73 W7 30.00F  
LOGAN CLOUDY 75 72 88 CALM 29.97S  
BLUEFIELD CLOUDY 69 65 86 W8 30.04S  
LEWISBURG CLOUDY 76 64 67 NW7 29.98S  

 
 
WVZ047-241500-  
NORTHERN MOUNTAINS OF WEST VIRGINIA  
 
CITY SKY/WX TMP DP RH WIND PRES REMARKS
 
ELKINS CLOUDY 73 64 73 VRB3 29.96S  

 
 
WVZ052-241500-  
EASTERN PANHANDLE OF WEST VIRGINIA  
 
CITY SKY/WX TMP DP RH WIND PRES REMARKS
 
MARTINSBURG SUNNY 80 66 62 NW8 29.83S  
PETERSBURG SUNNY 82 67 60 W8G17 29.88  

 
 
 
CLICK HERE TO GO TO PREVIOUS BULLETINS.

The Nexlab WV Page
The Nexlab OH Page
The Nexlab KY Page
The Nexlab VA Page Main Text Page